Regional Weather Roundup
Issued by NWS

Home | Current Version | Previous Version | Graphics & Text | Print | Product List | Glossary On
Versions: 1 2 3 4 5 6 7 8 9 10 11 12 13 14 15 16 17 18 19 20 21 22 23 24 25 26 27 28 29 30 31 32 33 34 35 36 37 38 39 40 41 42 43 44 45 46 47 48 49 50
000
ASUS43 KIND 201009
RWRIN

WEATHER ROUNDUP FOR INDIANA
NATIONAL WEATHER SERVICE INDIANAPOLIS IN
600 AM EDT THU JUL 20 2017

NOTE: "FAIR" INDICATES FEW OR NO CLOUDS BELOW 12,000 FEET WITH NO
SIGNIFICANT WEATHER AND/OR OBSTRUCTIONS TO VISIBILITY.

* - STATION DOES NOT REPORT WEATHER SUCH AS PRECIPITATION OR FOG.

+ - STATION NOT QUALITY CONTROLLED BY THE NATIONAL WEATHER SERVICE.
    USE DATA WITH CAUTION...ESPECIALLY DEWPOINT AND RELATIVE
    HUMIDITY OBSERVATIONS.

INZ001>003-010>013-019-020-201100-
NORTHWEST INDIANA

CITY           SKY/WX    TMP DP  RH WIND       PRES   REMARKS
GARY /AIRPORT/ PTCLDY    70  68  94 SW5       30.04R
KNOX *+        CLOUDY    68  68 100 SW3       30.02R
LA PORTE +     CLOUDY    69  67  93 CALM      30.05R
MICHIGAN CITY+ CLOUDY    68  68 100 CALM      30.05R
MONTICELLO +   CLOUDY    69  68  95 SW5       30.02R
RENSSELAER +   CLOUDY    70  66  88 CALM      30.03R
VALPARAISO     CLOUDY    71  69  93 SW5       30.05R

$$

LMZ046-743>745-201100-
SOUTHERN LAKE MICHIGAN

STATION/POSITION TIME  TEMP    WIND        PRES    WAVE
                       AIR SEA DIR/SP/G            HT
                 (UTC) (F)     (DEG/KT/KT) (MB)    (FT)
BURNS HARBOR     0940   71     210/ 11/ 17 1016.6R
MICHIGAN CITY    0940   71     240/  5/  6   N/A
5NW MICH CITY    1000   73 74  240/  8/ 10   N/A     1

$$

INZ004-005-014>016-021>024-201100-
NORTH CENTRAL INDIANA

CITY           SKY/WX    TMP DP  RH WIND       PRES   REMARKS
PERU/GRISSOM   MOCLDY    71  71 100 SW7       30.02R
ROCHESTER +    CLOUDY    72  70  94 W6        30.03R
SOUTH BEND     CLOUDY    68  67  96 W5        30.04R
WARSAW +       CLOUDY    70  66  88 W8        30.02R

$$

INZ006>009-017-018-025>027-201100-
NORTHEAST INDIANA

CITY           SKY/WX    TMP DP  RH WIND       PRES   REMARKS
ANGOLA *+      CLEAR     72  63  73 W3        30.03R
AUBURN +       MOCLDY    72  63  73 CALM      30.04R
FORT WAYNE     CLOUDY    71  66  84 CALM      30.04R
HUNTINGTON +   CLOUDY    70  68  92 W7        30.01R
KENDALLVILLE + MOCLDY   N/A N/A N/A NW5       30.05R

$$

INZ028-029-035-036-043>045-051>053-201100-
WEST CENTRAL INDIANA

CITY           SKY/WX    TMP DP  RH WIND       PRES   REMARKS
GREENCASTLE +  CLOUDY    70  68  94 CALM      30.06R
LAFAYETTE      PTCLDY    69  69 100 CALM      30.03R
TERRE HAUTE    CLOUDY    74  71  91 CALM      30.04S

$$

INZ030>032-037>040-046>048-054>057-064-065-201100-
CENTRAL INDIANA

CITY           SKY/WX    TMP DP  RH WIND       PRES   REMARKS
CP ATTERBURY + CLOUDY    70  68  94 CALM      30.05S
FRANKFORT +    CLOUDY    70  69  95 CALM      30.06R
INDIANAPOLIS   CLOUDY    74  72  93 SW6       30.03R
-EAGLE CREEK   CLOUDY    74  69  85 CALM      30.04R
KOKOMO +       CLOUDY    71  69  93 SW7       30.04R
MARION +       CLOUDY    72  66  83 W6        30.03R
MT COMFORT *+  CLOUDY    73  72  94 SW5       30.03F
SHELBYVILLE    PTCLDY    74  70  87 SW6       30.03F
ZIONSVILLE +   MOCLDY    69  67  93 CALM      30.05R

$$

INZ033-034-041-042-049-050-058-059-201100-
EAST CENTRAL INDIANA

CITY           SKY/WX    TMP DP  RH WIND       PRES   REMARKS
MUNCIE         CLOUDY    76  71  85 SW8       30.02F
RICHMOND +     PTCLDY    70  70 100 SW5       30.06S FOG

$$

INZ060-061-067>069-081>083-085>088-201100-
SOUTHWEST INDIANA

CITY           SKY/WX    TMP DP  RH WIND       PRES   REMARKS
EVANSVILLE     CLEAR     76  73  91 CALM      30.05S
HUNTINGBURG *+ CLEAR     74  72  93 CALM      30.06S

$$

INZ062-063-066-070>080-084-089>092-201100-
SOUTH CENTRAL AND SOUTHEAST INDIANA

CITY           SKY/WX    TMP DP  RH WIND       PRES   REMARKS
BEDFORD +      CLEAR     72  68  88 CALM      30.05F
BLOOMINGTON    CLOUDY    71  68  90 W3        30.06F FOG
MADISON *+     PTCLDY    70  68  94 CALM      30.08F
NORTH VERNON + PTCLDY    68  68 100 CALM      30.06F
SEYMOUR +      PTCLDY    70  70 100 CALM      30.04F FOG

$$





USA.gov is the U.S. government's official web portal to all federal, state and local government web resources and services.